This is the latest recevied weather packets stored in our database for station/object AG1T-20. If no packets are shown the sender has not sent any weather packets the latest 10 day(s).
| Time | Temp. | Humidity | Pressure | Rain* | Wind** | Luminosity | Snow |
|---|---|---|---|---|---|---|---|
| 1777959005 | 12.22° C | 56% | 1010.3 hPa | 0 mm | - | 0 W/m² | - |
| 1777958405 | 13.89° C | 47% | 1010.3 hPa | 0 mm | - | 0 W/m² | - |
| 1777957805 | 13.89° C | 47% | 1010.3 hPa | 0 mm | - | 0 W/m² | - |
| 1777957205 | 13.89° C | 47% | 1010.3 hPa | 0 mm | - | 0 W/m² | - |
| 1777956605 | 13.89° C | 46% | 1010.2 hPa | 0 mm | - | 0 W/m² | - |
| 1777956005 | 14.44° C | 45% | 1010.2 hPa | 0 mm | - | 0 W/m² | - |
| 1777955405 | 13.89° C | 46% | 1010.2 hPa | 0 mm | - | 0 W/m² | - |
| 1777954805 | 13.89° C | 49% | 1010.2 hPa | 0 mm | - | 0 W/m² | - |
| 1777954205 | 13.33° C | 50% | 1010.2 hPa | 0 mm | - | 0 W/m² | - |
| 1777953605 | 13.33° C | 51% | 1010.2 hPa | 0 mm | - | 0 W/m² | - |
| 1777953005 | 13.33° C | 51% | 1009.5 hPa | 0 mm | - | 0 W/m² | - |
| 1777952405 | 13.89° C | 49% | 1009.5 hPa | 0 mm | - | 0 W/m² | - |
| 1777951805 | 13.89° C | 46% | 1009.5 hPa | 0 mm | - | 0 W/m² | - |
| 1777951205 | 14.44° C | 45% | 1009.5 hPa | 0 mm | - | 0 W/m² | - |
| 1777950605 | 13.89° C | 47% | 1009.5 hPa | 0 mm | - | 0 W/m² | - |
| 1777950005 | 14.44° C | 44% | 1009.5 hPa | 0 mm | - | 0 W/m² | - |
| 1777949405 | 15° C | 44% | 1009.2 hPa | 0 mm | - | 0 W/m² | - |
| 1777948805 | 15.56° C | 41% | 1009.2 hPa | 0 mm | - | 0 W/m² | - |
| 1777948205 | 16.11° C | 42% | 1009.2 hPa | 0 mm | - | 3 W/m² | - |
| 1777947605 | 16.11° C | 39% | 1009.2 hPa | 0 mm | - | 7 W/m² | - |
| 1777947005 | 17.22° C | 40% | 1009.2 hPa | 0 mm | - | 14 W/m² | - |
| 1777946405 | 17.22° C | 39% | 1009.2 hPa | 0 mm | - | 23 W/m² | - |
| 1777945805 | 16.67° C | 41% | 1009.4 hPa | 0 mm | - | 23 W/m² | - |
| 1777945205 | 17.22° C | 38% | 1009.4 hPa | 0 mm | - | 27 W/m² | - |
| 1777944605 | 17.78° C | 37% | 1009.4 hPa | 0 mm | - | 29 W/m² | - |
* Rain latest hour (hover to see other rain measurements)
** Current wind speed in m/s (hover to see current wind gust speed)